Location: ?
(35.4996°N, 139.3166°E)
Time: 04:48:59
(UTC+00:00)

NOSS 3-1 (C) - Pass Details

Date: 18 April 2024
Orbit: 652 x 1553 km, 63.4° (Epoch: 15 May)

Event Time Altitude Azimuth Distance (km) Brightness Sun altitude
Rises 18:37:20 0° 328° (NNW) 4,009 6.7 -17.5°
Reaches altitude 10° 18:39:51 10° 328° (NNW) 3,161 6.1 -17.0°
Maximum altitude 18:47:44 88° 242° (WSW) 1,395 4.2 -15.6°
Drops below altitude 10° 18:57:01 10° 152° (SSE) 3,681 6.5 -13.9°
Sets 19:00:09 0° 152° (SSE) 4,696 7.1 -13.3°
